Content
SEND FEEDBACK

Daily
Averages
Monthly
Summary
Canada

DRUMHELLER, ALBERTA


Home > North America > Canada > Alberta
Elevation: 2254 feet     Latitude: 51 28N     Longitude: 112 43W

WEATHER
 
SELECT A DAY
Number of Records: 140,410;   Date Range: 1/1/95 - 10/30/14
 
SHARE

PRINT THIS DATA

[ ← Previous Day ]
WEATHER ALMANAC - OCTOBER 18, 2013
[ Next Day → ]
[ °C ]   °F
Weather ElementAverageHighLow
Temperature39.5 °F62.8 °F (3:00 pm)21.7 °F (8:00 am)
Dewpoint26 °F30.6 °F (11:00 pm)19.8 °F (8:00 am)
Humidity64.1 %92 % (8:00 am)20 % (6:00 pm)
Barometer30.04 in30.21 in (12:00 am)29.90 in (11:00 pm)
Wind Speed3.4 mph10.4 mph (3:00 pm)
Weather ElementAverage
Wind DirectionSSW (199.3 °)

Weather ElementTotal
Precipitation---
Heating Degree Days22.8 (Base 65)
Averaged from 27 records on October 18, 2013
WEATHER CONDITIONS BREAKOUT
WIND DIRECTION BREAKOUT
WEATHER BY HOUR - OCTOBER 18, 2013
[ °C ]   °F
Local TimeTemperatureDewpointHumidityBarometerVisibilityWind DirectionWind SpeedGust SpeedPrecipitationEventsConditions
12:00 AM28.6 °F26.2 °F91 %30.21 inSouth (170°)2.3 mph
1:00 AM28.2 °F24.8 °F87 %30.20 inSouth (170°)4.6 mph
2:00 AM27.0 °F24.3 °F90 %30.19 inSouth (170°)3.5 mph
3:00 AM26.4 °F23.5 °F89 %30.18 inSouth (170°)3.5 mph
4:00 AM25.9 °F23.2 °F90 %30.17 inSSE (150°)3.5 mph
5:00 AM25.3 °F22.3 °F88 %30.14 inSouth (180°)2.3 mph
6:00 AM24.1 °F21.4 °F89 %30.13 inNNW (330°)3.5 mph
6:00 AM24.0 °F21.0 °F85 %30.13 inNNW (330°)3.5 mph
7:00 AM22.8 °F20.7 °F91 %30.12 inNNW (340°)1.2 mph
8:00 AM21.7 °F19.8 °F92 %30.12 inWNW (300°)1.2 mph
9:00 AM26.2 °F23.2 °F88 %30.12 inCalm
10:00 AM33.1 °F26.4 °F77 %30.11 inSE (130°)2.3 mph
11:00 AM39.6 °F27.7 °F62 %30.09 inNE (50°)1.2 mph
12:00 PM45.1 °F28.2 °F52 %30.06 inNorth (360°)2.3 mph
12:00 PM45.0 °F28.0 °F39 %30.06 inNorth2.3 mph
1:00 PM53.1 °F29.5 °F40 %30.01 inNorth (10°)3.5 mph
2:00 PM60.8 °F27.9 °F29 %29.97 inWNW (300°)6.9 mph
3:00 PM62.8 °F27.5 °F26 %29.93 inNNW (330°)10.4 mph
4:00 PM62.1 °F26.8 °F26 %29.92 inNNW (330°)10.4 mph
5:00 PM61.3 °F26.4 °F27 %29.91 inNNW (330°)9.2 mph
6:00 PM57.7 °F27.7 °F32 %29.91 inWNW (290°)3.5 mph
6:00 PM58.0 °F28.0 °F20 %29.91 inWNW (290°)3.5 mph
7:00 PM50.0 °F30.0 °F46 %29.91 inWest (270°)2.3 mph
8:00 PM45.3 °F29.5 °F54 %29.92 inNorth (10°)1.2 mph
9:00 PM40.6 °F28.0 °F61 %29.92 inCalm
10:00 PM36.9 °F28.9 °F73 %29.91 inNW (310°)1.2 mph
11:00 PM34.3 °F30.6 °F86 %29.90 inENE (60°)1.2 mph
Hourly data recorded from CWDZ, located miles away from Drumheller, Alberta







STORIES FROM OUR PARTNERS